Location: Recife
(8.0585°S, 34.8848°W)
Time: 10:25:13
(UTC-03:00)

Transit 2A Rocket - Pass Details

Date: 15 April 2026
Orbit: 587 x 895 km, 66.7° (Epoch: 14 May)

Event Time Altitude Azimuth Distance (km) Brightness Sun altitude
Rises 12:40:56 0° 323° (NW) 2,814 8.3 62.9°
Reaches altitude 10° 12:43:20 10° 313° (NW) 1,905 7.7 62.5°
Maximum altitude 12:47:09 33° 248° (WSW) 998 6.4 61.7°
Drops below altitude 10° 12:51:03 10° 184° (S) 1,935 7.1 61.0°
Sets 12:53:30 0° 174° (S) 2,866 7.8 60.5°
